Content
SEND FEEDBACK

Daily
Averages
Monthly
Summary
United States of America

WHITEVILLE, NORTH CAROLINA


Home > North America > United States > North Carolina
Elevation: 2 meters     Latitude: 34 19N     Longitude: 078 43W

WEATHER
 
SELECT A DAY
Number of Records: 298,316;   Date Range: 5/14/02 - 10/23/14
 
SHARE

PRINT THIS DATA

[ ← Previous Day ]
WEATHER ALMANAC - 13 FEBRUARY, 2013
[ Next Day → ]
[ °F ]   °C
Weather ElementAverageHighLow
Temperature4.4 °C9.5 °C (9:15 pm)-1.2 °C (10:15 am)
Dewpoint3.1 °C8.5 °C (12:35 am)-1.5 °C (10:15 am)
Humidity92 %100 % (1:35 pm)73 % (7:55 pm)
Barometer1008.1 hPa1013.2 hPa (12:35 am)1004.4 hPa (2:15 pm)
Wind Speed8 km/h18.5 km/h (3:15 pm)
Wind Gust33.3 km/h (7:35 pm)
Weather ElementAverage
Visibility12.1 km
Wind DirectionSE (132.3 °)

Weather ElementTotal
Precipitation8.64 mm
Heating Degree Days14.2 (Base 18.3)
Averaged from 71 records on 13 February, 2013
WEATHER CONDITIONS BREAKOUT
WIND DIRECTION BREAKOUT
WEATHER BY HOUR - 13 FEBRUARY, 2013
[ °F ]   °C
Local TimeTemperatureDewpointHumidityBarometerVisibilityWind DirectionWind SpeedGust SpeedPrecipitationEventsConditions
12:35 AM8.7 °C8.5 °C99 %1013.2 hPa8 kmNE (50°)9.3 km/h1.27 mmRainLight Rain
12:55 AM8.1 °C7.7 °C97 %1012.9 hPa11.3 kmNE (50°)11.1 km/h1.78 mmRainRain
1:15 AM7.7 °C7.1 °C96 %1012.5 hPa16.1 kmNE (40°)9.3 km/h0.51 mmRainLight Rain
1:35 AM7.5 °C6.1 °C91 %1012.5 hPa16.1 kmNE (40°)11.1 km/h0.76 mmRainLight Rain
1:55 AM7.2 °C5.6 °C90 %1011.9 hPa11.3 kmNE (50°)5.6 km/h1.27 mmRainRain
2:15 AM7 °C5.8 °C92 %1011.9 hPa16.1 kmENE (70°)5.6 km/hRainLight Rain
2:35 AM7 °C6.1 °C94 %1011.9 hPa11.3 kmENE (70°)5.6 km/h0.51 mmRainRain
2:55 AM7 °C6.3 °C95 %1011.2 hPa16.1 kmENE (60°)7.4 km/h1.02 mmRainRain
3:15 AM7 °C6.3 °C95 %1010.5 hPa16.1 kmEast (90°)5.6 km/hLight Drizzle
3:35 AM6.8 °C6.3 °C97 %1009.8 hPa16.1 kmNE (50°)9.3 km/h0.25 mmRainRain
3:55 AM6.5 °C6.1 °C97 %1008.8 hPa16.1 kmEast (90°)13 km/h0.51 mmRainRain
4:15 AM5.9 °C5.4 °C97 %1008.8 hPa16.1 kmNE (40°)7.4 km/hLight Drizzle
4:35 AM5.6 °C5.2 °C97 %1009.1 hPa16.1 kmEast (90°)7.4 km/hOvercast
4:55 AM5.5 °C5 °C97 %1009.1 hPa8 kmEast (90°)7.4 km/hOvercast
5:15 AM5.3 °C5 °C98 %1009.5 hPa11.3 kmCalmOvercast
5:35 AM5.3 °C5 °C98 %1009.5 hPa16.1 kmNE (40°)7.4 km/hOvercast
5:55 AM5 °C4.6 °C97 %1009.5 hPa16.1 kmNE (50°)7.4 km/hOvercast
6:15 AM4.7 °C4.4 °C98 %1008.8 hPa16.1 kmENE (60°)9.3 km/hOvercast
6:35 AM4.7 °C4.3 °C97 %1009.1 hPa16.1 kmNE (50°)7.4 km/hOvercast
6:55 AM4.5 °C4.1 °C97 %1008.8 hPa4 kmEast (80°)9.3 km/hRainRain
7:15 AM4.2 °C3.8 °C97 %1008.5 hPa4.8 kmNE (40°)5.6 km/hLight Drizzle
7:35 AM3.5 °C3.1 °C97 %1008.8 hPa4.8 kmCalmOvercast
7:55 AM3 °C2.7 °C98 %1008.1 hPa3.2 kmNE (40°)7.4 km/hOvercast
8:15 AM2.4 °C2.2 °C99 %1008.5 hPa2.9 kmNorth (360°)5.6 km/hOvercast
8:35 AM2 °C1.7 °C98 %1008.5 hPa2.4 kmNNE (20°)5.6 km/hOvercast
8:55 AM0.9 °C0.7 °C99 %1009.1 hPa2.4 kmCalmOvercast
9:15 AM0.7 °C0.5 °C99 %1009.1 hPa2.4 kmCalmOvercast
9:35 AM-0.5 °C-0.7 °C99 %1009.1 hPa3.2 kmCalmOvercast
9:55 AM-0.7 °C-1 °C98 %1008.5 hPa3.2 kmNE (50°)5.6 km/hOvercast
10:15 AM-1.2 °C-1.5 °C98 %1008.1 hPa3.2 kmCalmOvercast
10:35 AM-1.1 °C-1.3 °C99 %1007.5 hPa4 kmEast (100°)5.6 km/hOvercast
10:55 AM-1 °C-1.2 °C99 %1007.1 hPa4.8 kmEast (80°)7.4 km/hOvercast
11:15 AM-0.9 °C-1.1 °C99 %1007.8 hPa11.3 kmCalmOvercast
11:35 AM-0.8 °C-1 °C99 %1007.5 hPa16.1 kmCalmOvercast
11:55 AM-0.6 °C-0.8 °C99 %1007.1 hPa16.1 kmSSE (160°)5.6 km/hOvercast
12:15 PM-0.5 °C-0.6 °C99 %1006.8 hPa4 kmCalmOvercast
12:35 PM-0.2 °C-0.5 °C98 %1006.1 hPa3.2 kmCalmOvercast
12:55 PM0 °C-0.2 °C99 %1006.1 hPa4.8 kmCalmOvercast
1:15 PM0 °C-0.2 °C99 %1005.8 hPa4.8 kmSSW (210°)7.4 km/hOvercast
1:35 PM0 °C0 °C100 %1004.7 hPa3.2 kmSSW (200°)9.3 km/hOvercast
1:55 PM0.3 °C0.1 °C99 %1005.1 hPa8 kmSW (220°)13 km/h31.5 km/hOvercast
2:15 PM0.7 °C0.4 °C98 %1004.4 hPa11.3 kmSSW (200°)14.8 km/hOvercast
2:35 PM0.8 °C0.3 °C96 %1005.1 hPa11.3 kmSSW (210°)16.7 km/hOvercast
2:55 PM1.2 °C0.4 °C94 %1005.1 hPa16.1 kmSW (220°)14.8 km/h27.8 km/hOvercast
3:15 PM1.5 °C0.3 °C92 %1005.1 hPa16.1 kmSW (220°)18.5 km/h29.6 km/hOvercast
3:35 PM1.6 °C0.2 °C91 %1004.4 hPa16.1 kmSSW (210°)16.7 km/hMostly Cloudy
3:55 PM2 °C0 °C87 %1005.1 hPa16.1 kmSW (220°)14.8 km/hScattered Clouds
4:15 PM2 °C-0.2 °C85 %1004.4 hPa16.1 kmWSW (250°)16.7 km/hScattered Clouds
4:35 PM1.9 °C0 °C87 %1005.1 hPa16.1 kmWest (270°)9.3 km/hMostly Cloudy
4:55 PM1.6 °C-0.2 °C88 %1005.4 hPa16.1 kmWSW (250°)9.3 km/hMostly Cloudy
5:15 PM1.6 °C-0.5 °C86 %1006.1 hPa16.1 kmWest (260°)9.3 km/hMostly Cloudy
5:35 PM1.6 °C-0.4 °C87 %1006.1 hPa16.1 kmSW (220°)7.4 km/hScattered Clouds
5:55 PM2.6 °C0.5 °C86 %1006.1 hPa16.1 kmCalmClear
6:15 PM4.5 °C2.4 °C86 %1006.1 hPa16.1 kmSW (230°)18.5 km/h27.8 km/hDrizzle
6:35 PM7.3 °C3.3 °C76 %1006.4 hPa16.1 kmSW (230°)13 km/h27.8 km/hRainRain
6:55 PM9 °C5.8 °C80 %1006.8 hPa16.1 kmWest (260°)11.1 km/hRainRain
7:15 PM7.4 °C4.2 °C80 %1007.5 hPa16.1 kmSW (230°)13 km/h27.8 km/h0.25 mmRainLight Rain
7:35 PM8.2 °C4.5 °C78 %1006.4 hPa16.1 kmSW (220°)13 km/h33.3 km/h0.25 mmClear
7:55 PM8.7 °C4.2 °C73 %1007.5 hPa16.1 kmWSW (250°)14.8 km/h29.6 km/h0.25 mmClear
8:15 PM9 °C4.4 °C73 %1007.1 hPa16.1 kmWSW (250°)11.1 km/hRainLight Rain
8:35 PM9.1 °C5 °C76 %1008.1 hPa16.1 kmWSW (240°)9.3 km/hClear
8:55 PM9.3 °C5.5 °C77 %1008.5 hPa16.1 kmWSW (250°)14.8 km/hClear
9:15 PM9.5 °C5.8 °C78 %1008.1 hPa16.1 kmWest (260°)13 km/hClear
9:35 PM9.5 °C6.2 °C80 %1008.8 hPa16.1 kmWSW (250°)14.8 km/hClear
9:55 PM9.5 °C6.6 °C82 %1008.8 hPa16.1 kmWSW (250°)11.1 km/hClear
10:15 PM9.3 °C6.8 °C84 %1009.5 hPa16.1 kmCalmClear
10:35 PM9.1 °C6.9 °C86 %1009.5 hPa16.1 kmWest (260°)5.6 km/hClear
10:55 PM9 °C7 °C87 %1009.5 hPa16.1 kmWest (260°)7.4 km/hClear
11:15 PM8.9 °C7 °C88 %1009.8 hPa16.1 kmWSW (250°)5.6 km/hClear
11:35 PM8.9 °C7.1 °C89 %1010.2 hPa16.1 kmWSW (250°)5.6 km/hScattered Clouds
11:55 PM9 °C7.2 °C89 %1010.5 hPa16.1 kmWest (280°)5.6 km/hMostly Cloudy
Hourly data recorded from KCPC, located 0 kilometers away from Whiteville, North Carolina







STORIES FROM OUR PARTNERS